RH
5 5 5 5 5 5 5 5 4 4 4 4 4 4 4 4 4 4 4 4 4 4 4 5 5 5 5 5 5 5 5 5 6 6 6 6 7 7 7 9 13 20 27 35 43 47 52 57 60 58 49 37 29 26 28 30 28 27 31 35 38 41 43
4 5 4 4 4 4 4 4 4 4 4 4 4 4 4 4 3 3 4 3 3 4 3 4 4 4 5 5 5 5 5 5 5 5 6 6 6 7 7 7 8 12 19 28 36 42 46 51 54 56 54 47 36 28 25 28 29 28 28 30 33 36 40
4 4 4 4 4 4 4 4 4 4 3 3 3 3 3 3 3 3 3 3 3 3 3 3 3 3 4 4 4 4 4 5 5 5 5 6 6 6 6 7 7 8 12 20 30 37 41 46 49 50 51 49 43 36 28 25 27 29 28 28 29 31 35
5 4 4 4 4 4 4 4 3 3 3 3 3 3 3 3 3 3 3 3 3 3 3 3 3 3 3 3 3 4 4 4 5 5 5 5 5 6 5 6 6 7 7 11 20 31 37 40 43 46 47 46 43 41 36 28 24 26 28 28 28 29 31
4 4 4 4 4 4 4 4 4 3 3 3 3 3 3 2 3 2 2 3 2 3 3 3 3 3 3 3 3 3 4 4 4 4 4 4 4 5 5 5 5 6 7 7 11 21 31 37 39 40 44 45 41 40 40 34 28 24 25 27 28 29 31
4 4 4 4 3 4 3 3 4 3 3 3 3 3 3 3 3 3 3 3 2 3 2 2 3 3 3 3 3 3 3 3 3 4 4 4 4 4 5 5 5 5 6 7 7 11 21 31 36 37 39 43 41 37 37 36 32 28 25 24 25 27 30
3 3 3 3 3 3 3 3 3 3 3 3 3 3 3 3 3 3 3 3 3 3 3 2 3 2 2 3 3 3 3 3 3 3 3 3 4 4 4 4 5 5 5 6 7 8 12 20 30 35 36 38 38 36 35 34 34 33 30 26 24 25 27
3 3 3 3 3 3 3 3 3 3 3 3 3 3 3 3 3 3 3 3 3 3 3 3 3 2 2 2 2 3 3 3 3 3 3 3 3 3 4 4 4 4 4 5 5 6 8 11 19 28 34 36 35 34 35 36 34 34 33 31 27 24 24
3 3 3 3 3 3 3 3 3 3 3 3 3 3 3 3 3 3 3 3 3 3 3 3 2 2 2 2 2 2 2 3 3 3 3 3 3 3 3 3 4 4 4 5 5 5 7 8 11 18 26 33 35 32 33 35 35 33 32 32 29 26 23
3 3 3 3 3 3 3 3 3 3 3 3 3 3 3 3 3 3 3 3 3 3 3 2 2 2 2 2 2 2 2 2 2 3 3 3 3 3 3 3 3 3 3 4 4 5 5 6 8 10 16 25 32 33 32 33 33 31 30 30 29 27 25
3 3 3 3 3 3 3 3 2 2 2 2 2 2 3 3 3 3 3 3 3 3 2 2 2 2 2 2 2 2 2 2 2 2 2 3 3 3 3 3 3 3 3 3 4 4 5 5 6 8 10 15 22 29 32 32 30 27 27 29 29 28 28
3 3 3 3 3 3 3 3 3 2 2 2 2 2 2 2 3 3 3 3 3 3 2 2 2 2 2 2 2 2 2 2 2 2 2 2 2 2 3 3 2 3 3 3 3 4 4 5 5 7 8 10 13 19 26 30 30 27 24 26 27 28 29
3 3 3 3 3 3 3 3 3 3 2 2 2 2 2 2 2 3 3 2 2 2 3 2 2 2 2 2 2 2 2 2 2 2 2 2 2 2 2 2 3 3 3 3 3 3 4 4 5 5 7 8 9 12 16 22 26 26 24 23 24 25 27
3 3 3 3 3 3 3 3 3 3 3 3 2 2 2 2 2 2 2 2 2 2 2 2 2 2 2 2 2 2 2 2 2 2 2 2 2 2 2 2 3 3 3 3 3 3 3 4 4 5 6 7 8 9 10 13 17 20 20 21 21 22 23
3 3 3 3 3 3 3 3 3 3 3 2 2 2 2 2 2 3 3 3 2 2 2 2 2 2 2 2 2 2 2 2 2 2 2 2 2 2 2 2 2 3 3 3 3 3 3 3 4 5 5 6 7 8 9 9 10 12 13 15 17 19 20
3 3 3 3 3 3 3 3 3 3 3 2 2 2 2 3 3 3 3 2 2 2 2 2 2 2 2 2 2 2 2 2 2 2 2 2 2 2 2 2 2 2 2 3 3 3 3 3 4 4 4 5 6 6 7 8 8 9 9 10 12 15 17
3 3 3 3 3 4 4 3 3 2 2 2 2 2 3 3 3 3 3 3 2 3 2 2 2 2 2 2 2 2 2 2 2 2 2 2 2 2 2 2 2 2 2 2 3 3 3 3 3 3 4 4 5 5 6 7 7 8 8 8 8 10 12
3 3 3 3 4 4 4 3 3 2 2 2 2 2 3 3 3 3 3 3 3 3 2 2 2 2 2 2 2 2 2 2 2 2 2 2 2 2 2 2 2 2 2 2 2 2 3 3 3 3 3 3 4 5 5 5 6 6 7 7 7 8 8
3 3 3 4 4 4 4 3 3 2 2 2 2 3 3 3 3 3 3 3 3 3 2 2 2 2 2 2 2 2 2 2 2 2 2 2 2 2 2 2 2 2 2 2 2 2 2 3 3 3 3 3 3 4 4 4 5 5 6 6 7 7 7
3 3 4 4 4 4 4 3 3 2 2 2 2 3 3 3 3 3 3 3 2 2 3 2 3 3 2 3 3 2 2 2 2 2 2 2 2 2 2 2 2 2 2 2 2 2 2 2 2 3 3 3 3 3 3 4 4 4 5 5 5 6 7
3 3 4 4 4 4 4 3 3 3 2 3 3 3 3 3 3 3 3 3 2 2 3 3 3 3 3 2 3 2 2 2 2 2 2 2 2 2 2 2 2 2 2 2 2 2 2 2 2 2 3 3 3 4 3 3 4 4 4 5 5 5 6
3 3 4 4 4 4 4 3 3 3 3 3 3 3 3 3 3 3 3 3 3 2 3 3 2 3 3 3 3 3 2 2 2 2 2 2 2 2 2 2 2 2 2 2 2 2 2 2 3 2 2 3 3 3 3 3 3 3 3 4 5 4 5
3 3 4 4 4 4 4 3 3 3 3 3 3 3 3 3 3 3 3 3 3 2 3 3 2 3 3 2 3 3 2 3 2 2 2 2 2 2 2 2 2 2 2 2 2 3 2 2 3 3 2 3 2 2 3 3 3 3 3 3 4 4 4
3 3 4 4 4 4 4 3 3 3 3 3 3 3 3 3 3 3 3 3 3 3 3 3 2 3 3 2 3 3 2 3 2 2 2 2 2 2 2 2 3 2 3 2 2 3 3 2 3 3 3 3 3 2 3 2 2 3 3 3 3 3 4
3 3 4 4 4 4 4 3 3 3 3 3 3 3 3 3 3 3 3 3 3 3 3 3 3 3 3 3 3 3 3 3 3 3 3 2 2 3 2 2 3 2 2 3 2 2 3 2 3 3 3 3 3 3 3 3 2 2 3 3 3 3 3
4 3 3 4 4 4 4 4 4 3 3 3 3 3 3 3 3 3 3 3 3 3 3 3 3 3 3 3 3 3 3 3 3 3 3 3 2 3 2 2 3 2 2 3 2 2 2 2 3 3 3 3 3 3 3 3 3 3 2 2 3 3 3
4 3 3 4 4 4 4 4 4 4 3 4 3 3 4 3 3 3 3 3 3 3 3 3 3 3 3 3 3 3 3 3 3 3 3 3 3 3 3 2 2 3 2 2 2 3 3 2 2 3 3 3 3 3 3 3 3 3 3 2 2 3 3
4 3 3 4 4 4 4 4 4 4 4 4 4 3 4 3 3 3 3 3 3 3 3 3 3 3 3 3 3 3 3 3 3 3 3 3 3 3 3 3 2 2 2 2 2 3 3 3 3 3 3 3 3 3 3 3 3 3 3 3 3 3 3
5 4 4 4 4 4 4 4 4 4 4 4 4 4 4 4 3 3 3 3 4 3 3 3 3 3 3 3 3 3 3 3 3 3 3 3 3 3 3 3 3 3 2 3 2 2 3 3 3 3 3 3 3 3 3 3 3 3 3 3 3 3 3
5 5 5 5 4 4 4 4 4 4 4 4 4 4 4 4 3 4 4 3 3 4 3 3 4 3 3 4 3 3 3 3 3 3 3 3 3 3 3 3 3 3 3 3 3 2 3 3 3 3 3 3 3 3 3 3 3 3 3 3 3 3 3
5 5 5 5 4 4 4 4 4 4 4 4 4 4 4 4 4 3 4 3 4 4 4 3 4 4 3 4 4 3 4 4 3 3 3 3 3 3 3 3 3 3 3 3 3 3 3 3 3 3 3 3 3 3 3 3 3 3 3 3 3 3 3
5 5 5 5 5 5 5 4 5 5 5 4 5 4 4 4 4 4 4 4 4 4 4 4 4 4 4 4 4 4 3 3 3 3 3 3 3 3 3 3 3 3 3 3 3 3 3 3 3 3 3 3 3 3 3 3 3 3 3 3 3 3 3
6 5 5 5 5 5 5 5 5 5 5 5 5 4 4 4 4 4 4 4 4 4 4 4 4 4 4 4 3 3 3 3 3 3 3 3 3 3 3 3 3 3 3 3 3 3 3 3 3 3 3 3 3 3 3 3 3 3 3 3 3 3 3
5 6 5 5 5 5 5 5 5 5 5 5 5 5 4 4 4 4 4 4 4 4 4 4 4 4 4 4 3 3 3 3 3 3 3 3 3 3 3 3 3 3 3 3 3 3 3 3 3 3 3 3 3 3 3 3 3 3 3 3 3 3 3
5 5 5 5 5 5 5 5 5 5 5 5 5 5 4 4 4 4 5 4 4 4 4 4 4 4 4 4 4 4 4 3 3 4 4 4 4 4 4 4 4 4 3 3 3 3 3 3 3 3 3 3 3 3 3 3 3 3 3 3 3 3 3
5 5 6 6 5 5 5 5 5 6 5 5 5 5 5 5 4 4 5 5 4 4 4 4 4 4 4 4 4 4 4 4 4 4 4 4 4 4 4 4 4 4 4 4 4 4 3 3 3 3 3 3 3 3 3 3 3 3 3 3 3 3 3
Wind_Speed
117 117 117 117 117 118 118 118 118 118 118 118 118 118 119 118 118 118 118 118 118 119 119 120 120 120 120 120 119 118 118 118 118 119 119 120 121 122 124 126 129 130 129 132 134 134 132 132 131 131 131 128 125 122 121 122 122 121 121 121 121 120 118
111 111 112 112 113 113 114 114 115 115 115 115 115 116 116 116 116 115 115 115 115 116 116 116 117 117 118 119 118 117 117 117 117 118 118 119 120 121 123 125 127 129 130 133 136 138 136 136 136 134 134 133 131 127 124 124 124 124 124 123 123 123 122
105 106 106 107 107 108 109 110 110 111 112 112 112 112 112 112 112 112 111 112 112 112 113 113 113 114 115 116 116 116 117 117 117 118 118 118 119 120 121 124 126 127 129 132 137 140 140 140 140 138 137 136 136 133 129 127 127 127 127 126 125 125 125
100 100 101 101 102 102 103 104 105 106 107 108 108 108 108 108 109 108 108 108 108 109 109 110 110 111 113 113 114 114 115 116 116 117 118 118 119 119 120 122 124 126 128 131 135 140 142 143 143 142 141 140 139 137 135 132 130 129 129 129 128 127 127
96 96 96 96 97 97 98 99 99 100 101 102 102 102 103 103 103 104 104 104 105 105 106 106 107 108 110 111 111 112 113 115 115 116 117 117 117 118 119 120 122 123 126 129 132 137 142 146 147 146 144 144 142 141 140 138 135 132 132 132 131 131 130
91 91 91 92 92 92 93 93 94 95 96 96 97 96 97 97 97 98 99 100 101 102 103 103 103 104 106 107 108 110 111 113 114 115 115 116 116 117 117 118 120 121 123 126 130 134 140 145 148 149 148 147 147 144 143 142 140 137 135 134 134 134 133
87 87 87 87 88 88 89 89 90 91 91 91 91 91 91 91 92 93 94 95 96 98 99 100 101 102 103 104 105 107 109 111 112 113 113 114 115 116 116 116 117 119 121 123 126 131 136 143 148 151 151 150 150 148 146 146 144 142 140 138 137 137 136
84 83 84 84 84 85 85 86 86 87 87 87 86 86 86 87 88 89 90 91 92 94 95 97 98 99 100 102 103 104 106 107 109 110 111 112 113 114 114 114 115 117 119 120 122 126 132 139 145 150 152 153 153 152 150 149 148 147 145 144 142 140 139
80 80 80 81 81 81 81 82 82 83 83 82 82 81 82 83 84 85 86 88 89 91 93 94 95 97 98 99 100 101 102 104 105 107 108 109 111 112 112 112 113 114 115 117 119 122 127 134 140 147 151 154 155 155 153 153 152 150 148 148 146 144 142
78 77 77 77 78 78 78 78 78 79 78 78 78 78 78 79 80 82 83 85 88 89 91 92 92 93 95 96 97 98 99 100 102 103 105 106 109 110 110 110 111 112 112 114 115 118 122 128 134 141 148 153 156 157 157 156 155 153 151 150 150 148 146
75 75 74 73 73 74 74 74 75 75 74 75 75 75 75 75 77 79 81 83 85 87 88 89 89 90 91 92 93 95 96 98 99 100 101 103 105 107 107 107 108 109 110 111 112 114 118 122 127 135 143 149 154 158 159 159 157 155 153 153 152 151 149
72 72 71 70 70 70 71 72 72 71 71 72 73 72 71 71 73 77 79 81 82 83 84 85 85 86 87 89 90 91 93 94 95 97 98 99 101 102 104 105 105 106 107 108 109 111 114 117 122 129 137 144 150 156 159 160 160 158 156 155 154 153 153
70 70 68 67 67 67 69 69 69 69 70 70 71 70 68 67 69 73 76 77 78 79 80 81 82 83 84 85 86 88 89 90 92 93 95 96 97 98 99 101 102 103 105 106 107 108 110 113 118 124 131 138 146 152 157 159 160 160 159 157 156 155 155
68 67 66 64 63 64 66 67 67 67 68 68 68 68 66 65 66 68 71 73 74 75 76 77 78 79 80 82 83 84 85 87 88 90 91 92 92 93 95 97 98 100 102 104 105 105 107 111 116 120 126 133 140 147 153 156 158 159 160 159 157 156 156
64 64 63 61 61 62 64 65 65 65 66 66 65 64 63 63 64 65 66 68 70 70 71 73 74 75 77 78 79 81 82 83 85 86 88 89 89 90 91 93 95 97 99 101 103 104 106 109 114 117 121 128 135 141 146 151 155 157 157 157 156 156 156
62 60 59 59 59 60 63 64 63 62 63 63 62 60 59 60 62 63 64 65 65 66 68 69 71 72 73 75 77 78 80 81 82 83 84 85 86 87 88 89 92 94 97 99 100 102 105 108 112 115 118 124 130 134 139 145 150 152 154 154 154 154 155
60 59 57 56 56 58 61 63 63 61 61 60 58 55 55 57 60 60 61 61 62 63 65 66 67 68 69 72 74 76 77 78 79 79 80 81 82 84 85 86 89 93 95 97 98 100 103 106 110 112 115 118 123 128 133 138 142 146 149 151 151 151 153
58 57 56 55 55 57 59 62 62 60 58 57 54 51 52 55 57 57 57 58 60 61 62 63 63 64 65 68 71 73 75 76 75 75 75 77 78 80 82 84 88 92 94 95 96 97 99 103 105 108 111 113 117 121 126 131 134 137 142 146 146 147 149
57 56 55 54 55 56 58 61 61 58 56 54 51 49 50 52 54 54 55 56 58 58 59 60 61 61 63 65 68 70 71 72 72 71 72 74 75 77 80 84 87 89 90 91 92 92 94 97 101 104 107 109 112 116 120 123 126 129 135 139 141 142 144
55 54 53 52 54 56 58 59 59 56 53 51 48 46 47 50 51 51 53 54 55 55 55 57 58 59 60 61 64 66 68 69 69 69 69 71 73 75 79 82 83 83 84 86 87 88 90 93 96 100 104 106 109 112 115 117 119 123 129 132 134 135 138
54 52 51 51 52 55 58 59 56 53 49 47 45 44 45 48 48 49 51 52 51 51 52 54 55 56 57 58 60 63 64 65 66 67 67 69 71 74 76 78 78 77 78 81 83 85 87 90 93 96 99 103 106 109 111 113 115 119 123 125 126 129 132
53 50 49 48 50 53 56 57 54 50 47 44 42 41 43 45 46 46 48 49 48 48 49 51 52 53 54 55 57 59 61 62 63 64 65 66 68 70 72 73 74 74 74 76 79 82 84 86 89 92 95 98 102 105 107 109 111 114 117 119 120 123 126
52 49 47 47 48 50 53 54 51 47 46 44 41 40 40 42 43 44 45 46 46 46 47 48 50 51 52 53 54 56 57 59 60 61 61 63 64 66 68 69 71 72 72 73 75 78 80 83 85 88 91 94 97 101 103 106 107 109 111 113 115 117 121
51 48 45 45 47 49 50 51 49 45 44 44 41 39 39 40 41 41 42 43 44 44 44 46 47 48 49 50 52 53 54 56 57 58 58 59 61 63 65 66 67 69 70 71 72 74 77 80 82 84 86 89 92 95 98 100 102 104 105 106 109 112 116
51 47 44 43 45 47 48 49 47 44 43 43 40 38 38 38 39 39 40 40 41 41 42 43 44 45 46 47 48 50 51 52 54 55 56 57 58 60 62 64 65 67 69 70 71 72 74 76 78 80 82 85 87 90 93 95 98 99 100 101 104 108 111
51 47 44 41 42 44 46 47 46 44 43 43 40 37 36 37 37 38 38 38 38 39 39 40 42 43 44 45 46 47 48 50 51 52 54 55 56 57 59 61 63 65 67 68 69 70 71 73 75 77 80 82 84 86 88 91 93 95 96 97 99 103 106
52 49 44 41 39 40 42 44 45 43 42 42 41 38 36 36 35 36 36 36 36 36 37 37 39 40 42 43 44 45 46 47 49 50 52 53 53 55 56 58 60 62 64 66 67 68 69 71 72 74 76 78 80 83 85 87 89 90 91 93 96 98 100
54 50 46 42 40 39 39 40 41 42 41 40 40 38 36 35 34 34 34 34 34 34 35 35 37 38 39 41 42 43 44 46 47 49 50 51 52 53 54 55 57 59 61 63 64 66 67 69 70 71 73 75 77 79 81 83 85 86 88 89 92 94 96
53 52 49 47 43 41 39 39 38 39 39 39 38 37 36 34 33 33 32 32 33 33 33 34 35 36 37 38 40 41 42 44 45 46 48 49 50 50 51 52 54 56 57 59 61 63 65 67 68 69 71 73 74 76 78 79 81 83 84 86 88 90 92
50 50 48 47 46 43 41 40 39 37 36 37 36 35 34 33 32 32 31 31 31 32 32 33 34 34 35 36 37 39 41 42 43 44 45 46 47 48 49 50 51 53 54 56 58 60 61 63 65 67 68 70 72 73 75 77 79 80 81 83 85 87 89
46 48 45 44 45 44 40 39 39 37 35 34 34 33 33 32 31 30 30 30 30 31 31 32 32 33 33 34 35 37 39 40 41 41 42 43 44 45 46 48 49 51 52 53 54 56 57 59 61 63 65 67 69 70 72 74 76 77 79 81 82 84 85
41 46 44 41 42 43 41 38 37 37 34 33 32 31 31 31 30 29 29 29 29 30 30 30 31 31 32 32 34 35 36 37 38 39 40 41 42 43 44 46 47 48 49 51 52 53 54 56 58 60 61 63 65 67 69 71 73 74 76 78 79 81 82
35 41 43 40 38 40 41 38 36 35 34 32 31 30 29 29 28 28 28 28 28 29 29 29 29 29 30 31 32 33 34 35 36 37 38 39 40 41 42 43 44 45 47 48 49 51 52 53 54 56 58 59 61 63 65 67 69 71 72 74 76 78 79
33 35 40 40 36 35 38 38 36 33 32 31 30 29 28 28 27 27 27 27 27 27 27 27 28 28 29 30 31 31 32 33 34 35 36 37 39 40 40 41 42 43 44 45 47 48 49 50 51 53 54 56 58 59 61 63 65 67 69 71 72 74 76
37 34 36 39 37 34 34 35 35 33 32 30 29 28 28 27 26 26 26 26 26 26 26 26 26 27 27 28 29 30 31 31 32 33 34 36 37 38 39 39 40 41 42 43 44 45 46 47 49 50 51 53 54 56 58 60 62 63 65 67 69 70 72
39 35 34 36 37 35 33 33 33 32 31 30 29 28 27 26 25 25 25 25 25 25 25 25 25 26 27 27 28 29 30 30 31 32 33 34 35 36 37 37 38 39 40 41 42 43 44 45 46 47 48 50 52 54 55 57 59 60 62 63 65 66 68
Wind_Direction
274 273 273 273 272 272 271 271 271 270 269 269 268 267 267 266 265 264 263 262 261 260 259 259 258 257 257 256 254 253 252 251 250 249 248 246 244 242 239 237 236 234 232 232 234 235 235 235 236 237 238 237 235 233 232 232 232 231 230 229 229 229 229
273 273 273 272 272 272 271 271 271 270 270 269 268 267 267 266 265 264 263 262 261 260 260 259 258 257 256 255 254 253 252 251 250 249 248 246 245 242 240 238 236 234 232 230 231 233 234 234 235 235 236 237 236 234 232 231 231 231 231 230 229 229 228
274 273 273 272 272 271 271 270 270 269 269 269 268 268 267 267 266 265 264 263 262 261 260 259 258 257 256 255 255 253 252 251 250 249 247 246 245 243 241 239 237 234 232 230 230 231 232 233 234 234 234 235 236 235 233 231 230 230 230 230 229 229 229
275 274 273 272 272 271 271 270 270 269 269 269 268 268 267 267 267 266 265 264 263 262 261 259 258 257 256 255 254 253 252 251 250 249 247 246 245 243 242 240 238 235 233 231 229 229 231 232 233 234 234 234 235 235 235 233 231 230 230 230 230 229 229
275 274 273 273 272 272 271 271 270 270 269 269 269 268 268 268 267 267 266 265 265 263 262 260 259 257 256 255 254 253 252 251 250 249 247 246 245 243 242 241 239 237 234 231 229 228 229 231 232 233 234 234 234 234 234 234 233 231 229 229 229 229 229
275 275 274 274 273 273 272 271 271 270 270 269 269 269 268 268 268 267 266 266 265 264 262 261 260 258 256 255 254 252 251 250 250 249 248 247 245 244 242 241 240 238 236 233 230 228 228 229 231 232 233 233 234 234 234 234 234 233 231 229 229 229 229
277 277 276 275 275 274 273 273 272 271 270 269 269 268 268 268 267 267 266 265 264 263 262 261 260 258 257 255 254 252 251 250 249 248 247 247 246 244 243 241 240 239 237 235 231 229 228 228 230 231 232 233 234 234 234 234 234 233 233 231 229 228 228
279 278 278 277 276 275 274 274 273 272 271 270 269 269 268 267 266 265 265 264 263 263 262 260 259 257 256 255 253 252 250 249 249 248 247 246 246 245 244 242 240 239 238 236 234 231 228 228 229 230 231 232 233 234 234 234 234 233 233 233 232 230 228
281 280 279 278 277 276 275 274 273 273 272 271 270 269 268 266 265 264 263 263 262 261 260 259 258 257 255 254 253 252 251 250 249 248 247 246 246 245 244 243 241 240 238 237 235 233 230 228 228 229 231 231 232 234 234 234 234 234 233 233 233 232 230
282 281 280 280 279 278 277 276 275 274 273 271 270 269 267 266 265 263 262 261 260 259 259 258 258 257 256 255 253 252 251 250 249 248 246 246 245 245 244 243 242 241 239 237 236 234 232 230 228 228 230 231 232 233 234 234 234 234 234 233 234 233 233
283 283 282 281 280 280 279 278 276 275 274 272 270 268 266 265 265 263 262 260 259 259 259 258 258 257 257 256 255 253 252 250 249 248 247 246 245 244 244 243 243 242 240 238 236 235 233 232 230 229 229 230 231 232 233 234 234 235 234 234 234 234 233
285 284 284 283 283 282 281 279 278 276 275 273 271 269 267 265 265 264 262 261 260 259 259 259 258 258 257 257 256 255 253 252 250 249 248 246 245 245 244 243 242 242 241 239 237 235 234 233 231 230 229 229 230 232 232 233 234 235 235 234 234 234 234
287 287 286 286 285 284 282 280 279 278 276 274 272 271 269 267 265 264 263 263 261 260 260 259 258 258 257 257 256 256 255 253 252 250 249 247 246 245 244 243 242 242 241 240 238 236 235 233 232 231 230 229 229 231 232 232 233 234 235 235 235 234 234
289 288 288 287 286 285 283 281 279 278 276 275 274 272 271 269 266 265 264 264 263 261 260 259 258 258 257 256 256 256 255 254 253 251 250 248 247 246 245 244 243 242 241 240 239 237 235 234 232 231 230 230 230 230 231 232 233 234 235 235 235 235 235
290 290 289 289 288 286 284 281 280 278 277 275 274 273 272 271 269 267 265 264 263 262 261 260 259 257 257 256 255 254 254 253 252 251 250 248 247 245 244 243 243 242 240 239 239 238 236 235 233 232 230 230 230 230 231 231 232 234 235 236 236 236 236
292 291 291 291 289 288 286 283 281 279 277 276 275 275 274 273 271 268 266 265 264 263 261 259 258 257 256 255 255 254 253 252 251 251 250 248 247 245 244 243 242 241 240 239 238 237 236 235 234 233 231 230 231 231 231 231 232 233 234 235 236 236 236
295 294 294 293 291 289 287 285 282 280 279 278 277 277 275 273 271 269 267 266 264 263 261 259 258 257 256 255 254 253 252 251 251 250 250 249 248 246 244 243 242 241 240 238 237 235 235 235 235 234 233 232 232 231 231 232 232 232 233 235 235 236 236
298 297 297 296 294 291 288 285 283 282 281 280 280 279 277 275 272 270 269 267 264 262 261 260 259 257 255 254 254 253 253 252 251 250 250 250 249 247 245 243 241 241 240 239 237 236 235 235 235 235 235 233 233 233 233 232 232 233 233 234 235 235 236
300 300 299 298 296 292 289 286 285 284 284 283 283 282 279 276 274 271 269 266 264 262 261 260 259 257 255 254 254 253 253 252 252 250 249 248 248 247 246 244 242 241 240 240 239 238 236 235 235 236 236 235 234 234 234 233 233 233 234 234 234 235 236
302 301 301 300 297 294 290 287 286 286 286 287 286 283 280 277 274 271 269 266 265 264 263 261 260 258 256 255 254 253 253 252 251 250 248 247 246 246 245 245 243 242 241 241 240 239 238 236 236 235 235 235 235 234 234 234 233 233 234 234 234 234 235
303 303 302 301 298 294 292 290 289 290 290 289 286 283 279 276 274 272 270 268 266 265 263 261 260 259 257 255 254 254 253 252 250 249 248 247 245 245 245 246 245 244 242 241 240 239 238 237 236 236 235 235 235 235 235 235 234 233 234 234 234 234 234
304 305 304 301 298 295 293 292 293 294 293 290 286 282 279 276 274 272 271 269 266 264 262 261 259 258 257 255 254 253 253 252 251 249 247 247 246 245 245 246 246 245 243 241 240 239 238 237 236 236 235 235 235 235 236 235 234 234 234 234 233 233 234
306 307 306 303 300 297 295 295 295 296 295 292 288 284 281 278 275 273 271 269 267 264 262 261 259 258 256 255 254 253 252 252 251 249 248 247 246 246 245 245 245 245 243 241 240 240 239 238 236 236 236 236 235 235 236 236 235 235 234 234 233 233 233
308 309 308 306 302 299 298 297 298 298 296 293 291 288 284 280 277 274 272 270 268 265 263 261 260 258 256 255 254 253 252 251 251 250 248 247 245 245 245 244 243 243 243 241 240 238 238 238 237 236 236 236 236 236 236 236 236 236 235 235 234 234 233
309 310 310 308 305 302 301 300 300 300 298 295 293 290 286 282 279 276 273 270 268 266 264 262 260 259 257 256 254 253 253 252 251 249 248 246 244 243 243 243 242 241 241 240 239 238 237 237 237 236 236 235 235 235 236 236 236 236 236 235 235 234 234
311 312 312 310 307 304 302 301 301 301 299 297 295 292 288 284 280 277 274 271 269 267 265 263 261 260 258 256 255 253 252 251 250 249 247 246 244 243 242 242 241 241 240 240 239 238 237 236 235 235 235 235 234 234 234 235 235 235 235 235 235 235 235
312 313 312 311 308 305 304 302 302 302 300 298 297 294 290 286 281 278 276 273 270 268 265 263 261 260 258 257 255 254 252 251 249 248 247 246 244 243 241 241 240 240 239 239 238 238 237 236 235 235 235 235 234 234 234 234 234 234 234 234 234 234 234
313 313 314 314 312 310 307 304 303 302 300 298 297 294 291 287 284 280 277 274 272 269 266 264 261 260 258 257 255 253 252 250 249 248 247 245 244 243 241 240 240 239 239 238 238 237 237 236 235 235 234 234 234 234 234 234 234 233 233 233 232 233 233
314 315 316 316 315 313 310 307 304 302 300 298 296 294 291 288 285 282 278 276 273 271 268 265 262 260 258 256 255 253 252 251 249 248 247 246 245 243 242 241 240 239 238 238 237 237 236 235 235 234 233 233 233 233 233 234 234 233 233 232 232 232 232
312 313 315 315 314 314 312 309 306 304 301 298 296 293 291 288 285 283 280 277 275 273 270 267 263 261 258 256 254 253 252 251 249 248 247 246 245 244 243 242 240 239 238 238 237 237 236 236 235 234 234 233 233 232 232 233 233 233 232 232 232 231 231
313 312 314 315 313 313 312 310 308 306 303 300 297 294 291 289 286 283 281 279 276 274 271 268 265 262 259 257 254 252 251 250 249 248 246 245 244 243 242 241 240 239 238 237 237 236 235 235 235 234 234 233 233 232 232 232 232 232 232 232 231 231 231
315 313 314 315 314 312 312 311 309 307 305 302 299 295 292 290 287 285 282 280 278 275 272 269 266 263 260 257 255 252 251 249 248 247 246 244 243 242 241 240 239 239 238 237 236 235 234 234 234 233 233 232 232 232 232 232 232 232 232 232 231 231 231
320 315 314 315 316 313 311 311 310 308 306 304 301 297 294 291 289 286 284 281 279 276 273 270 267 264 262 259 256 253 251 249 248 246 245 244 242 241 240 239 238 237 237 236 236 235 234 233 233 232 232 231 231 231 230 230 231 231 232 232 231 231 231
326 320 316 316 317 315 312 312 311 310 308 305 303 299 296 293 290 288 286 283 280 277 274 271 269 266 263 260 258 255 252 250 248 246 245 243 242 241 239 238 237 236 236 235 235 234 233 233 232 231 231 230 230 230 229 229 229 229 230 231 231 231 231
329 326 321 318 318 318 315 313 312 312 310 308 305 301 298 296 293 290 287 285 282 279 276 273 270 267 264 262 259 256 253 251 248 246 244 243 241 240 238 237 236 235 235 234 234 233 232 232 231 230 230 229 229 228 228 227 227 228 228 229 229 230 230
328 329 326 322 320 320 318 316 313 313 312 310 306 303 300 297 295 292 289 286 283 280 277 275 272 269 266 263 260 257 254 252 249 246 244 242 241 239 238 236 235 234 234 233 233 232 232 231 230 229 228 228 227 227 227 227 226 226 226 227 228 228 229